Погода Ивано-Франковск

Погода Ивано-Франковск : погода сейчас, прогноз погоды и архив. Всё, что Вы хотите узнать о погоде Ивано-Франковск!

Поиск расширенной информации на нашем сайте:

Полезная информация:

Другие новости

Новости СМИ2

Главная страница сайта

Новости сайта

03.07.2017

Напоминаем, что на нашем специализированном сайте Метеоцентр.Азия вы можете получить высокодетализированные автоматические прогнозы погоды по пунктам России, СНГ и мира в авиационном формате (включающие направление и скорость ветра, видимость, явления погоды, количество и форму облачности, нижнюю и верхнюю границу облачности).

Рекомендуем:

Погода Ивано-Франковск - сегодня

Время (UTC), дата Ветер
(°,м/с) 
Видим.   Явления Облачность Т
(°С)
Тd
(°С)
f(%) Тe
(°С)
Pmin
(гПа)
dP
(гПа)
Po
(мм)
O2
(г/м3)
Тmin Tmax R s Состояние
почвы
09 15.09.19 180 (Ю) 50000 м    3/0 верхняя 
[Ci fib]
+17.6 +5.2 44 +18  1025.9  -1.9  745  281           
12 15.09.19 170 (Ю) 50000 м    6/0 верхняя 
[Ci fib]
+22.1 +5.1 33 +22  1022.7  -2.6  743  276           
15 15.09.19 220 (ЮЗ) 50000 м    4/0 верхняя 
[Ci fib]
+23.1 +5.9 33 +23  1020  -2.5  741  274           
18 15.09.19 230 (ЮЗ) 50000 м    6/0 верхняя 
[Ci fib]
+14 +6.6 61 +15  1019.9  -1.1  740  283    +23.6       
21 15.09.19 190 (Ю) 20000 м    ясно 
+7.2 +4.9 85 +8  1020  -0.7  740  290           
00 16.09.19 190 (Ю) 10 км    6/0 верхняя 
[Ci fib]
+4.8 +3.6 92 +6  1019.8  -0.5  739  292           
03 16.09.19 200 (Ю) 20000 м    6/0 верхняя 
[Ci fib]
+5 +3.8 92 +6  1018.7  -1  738  292           
06 16.09.19 240 (ЮЗ) 30000 м    4/0 верхняя 
[Ci fib]
+16.7 +14.8 89 +26  1017  -0.2  738  277  +4         
09 16.09.19 290 (З) 50000 м    6/0 верхняя 
[Ci fib]
+24 +9.4 40 +25  1015.4  -0.8  738  272           
12 16.09.19 280 (З) 50000 м    8/0 средняя 
[Ac trans]
+26.4 +9.5 34 +27  1013.1  -2  736  269           
15 16.09.19 310 (СЗ) 50000 м    8/0 средняя 
[Ac trans]
+23.5 +10.2 43 +25  1012.4  -1  735  271           
18 16.09.19 360 (С) 20000 м    10/4 1380 м средняя 
[Sc|Ac und]
+19 +11.4 61 +23  1013.4  0.5  736  275    +27.1       
21 16.09.19 310 (СЗ) 10 км  слаб. ливневой дождь  10/10 600 м кучево-дожд. 
[Cb cap]
+13.2 +10.9 86 +17  1015.3  1.2  737  281           
00 17.09.19 280 (З) 10 км  слаб. ливневой дождь  9/9 720 м кучево-дожд. 
[Cb cap]
+12.8 +11.9 94 +17  1014.5  -0.8  736  281         
03 17.09.19 280 (З) 10 км  {ливн. осадки}  10/10 900 м кучево-дожд. 
[Cb cap]
+12.6 +11.1 91 +16  1013.9  -0.6  736  281           
06 17.09.19 300 (СЗ) 10 км  слаб. ливневой дождь  10/10 480 м кучево-дожд. 
[Cb cap]
+12.1 +10.6 91 +14  1014.5  0.5  736  282  +12       
09 17.09.19 230 (ЮЗ) 10 км  слаб. ливневой дождь  10/10 480 м кучево-дожд. 
[Cb cap]
+12.5 +11.4 93 +16  1014.4  736  281           
12 17.09.19 290 (З) 10 км  {ливн. осадки}  9/9 500 м кучево-дожд. 
[Cb cap]
+14.3 +10.7 79 +18  1012.6  -1.6  735  279         
15 17.09.19 210 (ЮЗ) 20000 м    6/6 1300 м 
[Sc]
+16 +12.2 78 +21  1010.3  -2  733  277           
18 17.09.19 240 (ЮЗ) 20000 м    8/6 1000 м средняя 
[Sc|Ac trans]
+13.1 +11.8 92 +18  1010.4  -0.2  733  280    +16.1     
21 17.09.19 200 (Ю) 10 км  слаб. ливневой дождь  10/10 600 м кучево-дожд. 
[Cb cap]
+11.9 +11.5 97 +16  1009.3  -1.2  732  280           
00 18.09.19 260 (З) 10 км  {ливн. осадки}  10/10 700 м кучево-дожд. 
[Cb cap]
+11.1 +10.1 94 +13  1009.2  -0.2  732  282         
03 18.09.19 280 (З) 20000 м  слаб. ливневой дождь  10/10 700 м кучево-дожд. 
[Cb cap]
+10.1 +3.8 65 +9  1011.2  1.8  733  284           
06 18.09.19 280 (З) 50000 м  {ливн. осадки}  3/0 средняя 
[Ac trans]
+10.4 +2.3 57 +8  1013.3  735  285  +8.9       
09 18.09.19 280 (З) 10  50000 м    5/5 1300 м 
[Cu hum]
+12.9 +1.9 47 +11  1015.2  2.1  737  283           
Время (UTC), дата Ветер
(°,м/с) 
Видим.   Явления Облачность Т
(°С)
Тd
(°С)
f(%) Тe
(°С)
Pmin
(гПа)
dP
(гПа)
Po
(мм)
O2
(г/м3)
Тmin Tmax R s Состояние
почвы

Для получения пояснительной информации подведите курсор к названию столбца.

ПОГОДА Ивано-Франковск - архив

Всё, что Вы хотите узнать о погоде Ивано-Франковск - удобно и подробно!

Выберите нужную дату (начиная с 1 января 2018* года) и нажмите кнопку "Найти".
Будут отображены архивные сводки погоды по пункту Ивано-Франковск, начиная с указанной даты.


Отображать данные в формате CSV (для использования в таблицах Excel)


Внимание! Наш архив погоды предназначен исключительно для личного некоммерческого использования в познавательных целях. Если Вам необходимы официальные справки о состоянии погоды (для производственных, юридических, коммерческих и т.п. целей), обращайтесь в органы Росгидромета.

*Примечание: данная дата относится к архиву по метеостанциям СССР (Россия, СНГ, Балтия).
Архив по метеостанциям Зарубежной Европы и Азии (кроме Китая) хранится 10 дней, по другим регионам земного шара (Китай, Африка, Америка, Австралия, Океания) - 1 день.

Ивано-Франковск - район местоположения метеостанции


Название, широта, долгота, высота метеостанции:
Ивано-Франковск 49°ш. 24.4°д. 280 м над ур. моря [Украина]

Дополнительная информация

В oтличие oт бoльшинства пoгoдных сайтoв мы публикуем пoдрoбную метеoинфoрмацию в детальнoм прoфессиoнальнoм фoрмате.

Характеристики температуры и влажнoсти вoздуха измеряются на высoте 2 м в тени вдали oт зданий и деревьев.
Скoрoсть ветра измеряется на высoте 10 м (на урoвне рoста челoвека скoрoсть ветра ниже в 1.5-2 раза). Если метеoстанция нахoдится в гoрoде или в лесу, тo скoрoсть ветра занижена на 2-4 м/с пo сравнению с oткрытым местoм. Скoрoсть ветра над акватoриями крупных рек и oзёр, а также на вершинах хoлмoв на 2-5 м/с выше, чем в oбычных услoвиях.
Атмoсфернoе давление в разных тoчках местнoсти мoжет значительнo oтличаться oт давления на метеoстанции, в зависимoсти oт услoвий рельефа (при пoдъёме на 10 м давление пoнижается примернo на 1 мм рт.ст.).